Location: Diati
(11.8376°N, 2.5966°E)
Time: 16:44:28
(UTC+00:00)

ATLAS 5 CENTAUR R/B - Pass Details

Date: 21 September 2020
Orbit: 236 x 12855 km, 20.1° (Epoch: 20 October)

Event Time Altitude Azimuth Distance (km) Brightness Sun altitude
Rises 19:24:39 0° 302° (WNW) 1,915 4.6 -24.9°
Reaches altitude 10° 19:26:10 10° 319° (NW) 1,323 3.3 -25.3°
Enters shadow 19:26:44 15° 330° (NNW) 1,158 2.8 -25.4°
